Battle Creek, MI

12:14 PM EST on December 06, 2016 (GMT -0500)
Kellogg

Weather History for KBTL - December, 2012

Change the Weather History Date:

Monday, December 24, 2012

  Actual Average Record
Temperature  
Mean Temperature 25 °F 25 °F  
Max Temperature 29 °F 33 °F 58 °F (2015)
Min Temperature 21 °F 18 °F -2 °F (2004)
Degree Days  
Heating Degree Days 40 40  
Month to date heating degree days 668 879  
Since 1 July heating degree days 2078 2317  
Moisture  
Dew Point 22 °F    
Average Humidity 80    
Maximum Humidity 85    
Minimum Humidity 74    
Precipitation  
Precipitation T in 0.07 in 0.55 in (2014)
Month to date precipitation 1.63 1.56  
Year to date precipitation 24.28 32.72  
Sea Level Pressure  
Sea Level Pressure 29.91 in    
Wind  
Wind Speed 7 mph (NE)    
Max Wind Speed 15 mph    
Max Gust Speed 18 mph    
Visibility 7 miles    
Events Snow    
T = Trace of Precipitation, MM = Missing Value Source: NWS Daily Summary

Daily Weather History Graph

Daily Weather History Graph

Search for Another Location

Airport or City:

Trip Planner

Search our weather history database for the weather conditions in past years. The results will help you decide how hot, cold, wet, or windy it might be!

Date:

Astronomy

Dec. 24, 2012 Rise Set
Actual Time 8:08 AM EST 5:13 PM EST
Civil Twilight 7:36 AM EST 5:45 PM EST
Nautical Twilight 7:00 AM EST 6:20 PM EST
Astronomical Twilight 6:26 AM EST 6:55 PM EST
Moon 2:41 PM EST (12/24) 4:44 AM EST (12/24)
Length of Visible Light 10h 09m
Length of Day
9h 05m
Waxing Gibbous, 88% of the Moon is Illuminated
Dec 24
Waxing Gibbous
Dec 28
Full
Jan 4
Last Quarter
Jan 11
New
Jan 18
First Quarter

Hourly Weather History & Observations

Time (EST) Temp. Windchill Dew Point Humidity Pressure Visibility Wind Dir Wind Speed Gust Speed Precip Events Conditions
12:53 AM 25.0 °F - 18.0 °F 75% 30.01 in 10.0 mi Calm Calm - N/A   Clear
1:53 AM 24.1 °F - 18.0 °F 77% 30.01 in 10.0 mi Calm Calm - N/A   Clear
2:53 AM 23.0 °F 17.0 °F 18.0 °F 81% 30.00 in 10.0 mi ENE 4.6 mph - N/A   Clear
3:53 AM 24.1 °F 19.7 °F 19.0 °F 81% 29.98 in 10.0 mi East 3.5 mph - N/A   Clear
4:53 AM 24.1 °F 16.0 °F 19.0 °F 81% 29.95 in 10.0 mi ENE 6.9 mph - N/A   Clear
5:53 AM 24.1 °F 15.2 °F 19.0 °F 81% 29.95 in 10.0 mi East 8.1 mph - N/A   Clear
6:53 AM 24.1 °F 17.0 °F 18.0 °F 77% 29.94 in 10.0 mi East 5.8 mph - N/A   Clear
7:53 AM 24.1 °F 16.0 °F 18.0 °F 77% 29.93 in 10.0 mi ENE 6.9 mph - N/A   Clear
8:53 AM 24.1 °F 17.0 °F 19.0 °F 81% 29.94 in 10.0 mi East 5.8 mph - N/A   Clear
9:28 AM 24.8 °F 17.9 °F 19.4 °F 80% 29.90 in 10.0 mi ENE 5.8 mph - N/A   Mostly Cloudy
9:53 AM 26.1 °F 16.8 °F 19.9 °F 78% 29.92 in 10.0 mi ENE 9.2 mph - N/A   Overcast
10:29 AM 26.6 °F 20.0 °F 21.2 °F 80% 29.90 in 10.0 mi East 5.8 mph - N/A   Overcast
10:53 AM 28.0 °F 20.8 °F 21.0 °F 75% 29.94 in 10.0 mi NE 6.9 mph - N/A   Overcast
11:53 AM 28.0 °F 18.1 °F 21.0 °F 75% 29.89 in 10.0 mi ENE 11.5 mph - N/A   Overcast
12:26 PM 28.4 °F 18.5 °F 21.2 °F 74% 29.82 in 10.0 mi East 11.5 mph - N/A   Scattered Clouds
12:53 PM 28.9 °F 21.9 °F 21.9 °F 75% 29.87 in 10.0 mi ENE 6.9 mph - N/A   Mostly Cloudy
1:27 PM 28.4 °F 19.7 °F 21.2 °F 74% 29.82 in 2.5 mi ENE 9.2 mph - 0.00 in Snow Light Snow
1:44 PM 28.4 °F 21.2 °F 23.0 °F 80% 29.82 in 1.8 mi ENE 6.9 mph - 0.00 in Snow Light Snow
1:53 PM 28.0 °F 20.0 °F 23.0 °F 81% 29.85 in 0.8 mi NE 8.1 mph - 0.00 in Snow Light Snow
2:09 PM 28.4 °F 21.2 °F 24.8 °F 86% 29.81 in 1.0 mi NNE 6.9 mph - 0.00 in Snow Light Snow
2:17 PM 28.4 °F 22.2 °F 24.8 °F 86% 29.82 in 0.8 mi NNE 5.8 mph - 0.00 in Snow Light Snow
2:24 PM 28.4 °F 21.2 °F 24.8 °F 86% 29.82 in 0.8 mi NNE 6.9 mph - 0.00 in Snow Light Snow
2:39 PM 28.4 °F 21.2 °F 24.8 °F 86% 29.81 in 1.0 mi NNE 6.9 mph - 0.00 in Snow Light Snow
2:53 PM 28.0 °F 20.8 °F 24.1 °F 85% 29.86 in 1.0 mi NNE 6.9 mph - 0.00 in Snow Light Snow
3:20 PM 28.4 °F 19.1 °F 24.8 °F 86% 29.83 in 2.5 mi NNE 10.4 mph - 0.00 in Snow Light Snow
3:24 PM 28.4 °F 20.4 °F 24.8 °F 86% 29.83 in 3.0 mi NNE 8.1 mph - 0.00 in Snow Light Snow
3:39 PM 28.4 °F 21.2 °F 24.8 °F 86% 29.84 in 4.0 mi NNE 6.9 mph - 0.00 in Snow Light Snow
3:53 PM 28.0 °F 20.8 °F 24.1 °F 85% 29.88 in 5.0 mi NNE 6.9 mph - 0.00 in Snow Light Snow
4:00 PM 28.4 °F 19.1 °F 24.8 °F 86% 29.84 in 5.0 mi North 10.4 mph - 0.00 in Snow Light Snow
4:10 PM 28.4 °F 20.4 °F 23.0 °F 80% 29.84 in 5.0 mi NNE 8.1 mph - 0.00 in Snow Light Snow
4:53 PM 27.0 °F 18.7 °F 23.0 °F 85% 29.89 in 7.0 mi NNE 8.1 mph - 0.00 in   Overcast
5:53 PM 27.0 °F 18.7 °F 23.0 °F 85% 29.91 in 8.0 mi NE 8.1 mph - 0.00 in   Overcast
6:21 PM 26.6 °F 21.2 °F 23.0 °F 86% 29.89 in 10.0 mi NNE 4.6 mph - N/A   Overcast
6:53 PM 27.0 °F 18.7 °F 21.9 °F 81% 29.95 in 10.0 mi NNE 8.1 mph - N/A   Overcast
7:00 PM 26.6 °F 18.2 °F 21.2 °F 80% 29.91 in 10.0 mi North 8.1 mph - N/A   Overcast
7:09 PM 26.6 °F 18.2 °F 21.2 °F 80% 29.92 in 10.0 mi North 8.1 mph - N/A   Overcast
7:53 PM 27.0 °F 18.0 °F 21.9 °F 81% 29.98 in 10.0 mi North 9.2 mph - N/A   Overcast
8:53 PM 27.0 °F 18.0 °F 21.9 °F 81% 30.00 in 10.0 mi NNE 9.2 mph - N/A   Overcast
9:53 PM 27.0 °F 18.7 °F 21.0 °F 78% 30.01 in 10.0 mi North 8.1 mph - N/A   Overcast
10:50 PM 26.6 °F 20.0 °F 21.2 °F 80% 29.99 in 10.0 mi North 5.8 mph - N/A   Overcast
10:53 PM 26.1 °F 20.5 °F 21.0 °F 81% 30.03 in 10.0 mi North 4.6 mph - N/A   Overcast
11:15 PM 26.6 °F 21.2 °F 21.2 °F 80% 30.00 in 10.0 mi NNW 4.6 mph - N/A   Overcast
11:53 PM 26.1 °F 19.4 °F 21.0 °F 81% 30.05 in 10.0 mi North 5.8 mph - N/A   Overcast